GW0019 Weather Reports


time (UTC)temp
F
wind
direction
speed
knots
gust
knots
rain 1hr
in
rain 24hr
in
rain mn
in
humidity
%
barometer
mb
20260902212910 97 180 2.6 3.5 0.00 0.00 0.00 77 1017.7
20260902212406 96 180 0.0 2.6 0.00 0.00 0.00 77 1017.9
20260902211903 96 225 3.5 5.2 0.00 0.00 0.00 77 1017.8
20260902211358 96 137 4.3 5.2 0.00 0.00 0.00 77 1017.8
20260902210853 96 213 2.6 5.2 0.00 0.00 0.00 77 1018.0
20260902210352 95 196 2.6 3.5 0.00 0.00 0.00 77 1018.0
20260902205851 94 200 4.3 6.1 0.00 0.00 0.00 77 1018.0
20260902205345 95 202 6.1 6.1 0.00 0.00 0.00 77 1018.1
20260902204841 95 191 3.5 7.0 0.00 0.00 0.00 77 1018.1
20260902204336 96 186 0.9 4.3 0.00 0.00 0.00 77 1018.1
20260902203832 95 214 2.6 3.5 0.00 0.00 0.00 77 1018.2
20260902203327 95 156 2.6 3.5 0.00 0.00 0.00 77 1018.2
20260902202826 95 251 4.3 4.3 0.00 0.00 0.00 77 1018.5
20260902202322 94 270 1.7 3.5 0.00 0.00 0.00 77 1018.4
20260902201818 94 236 1.7 3.5 0.00 0.00 0.00 77 1018.7
20260902201313 95 220 2.6 2.6 0.00 0.00 0.00 77 1018.5
20260902200808 95 217 3.5 4.3 0.00 0.00 0.00 77 1018.7
20260902200303 95 147 0.0 3.5 0.00 0.00 0.00 77 1018.7
20260902195759 95 207 3.5 4.3 0.00 0.00 0.00 77 1018.8
20260902195257 95 235 4.3 8.7 0.00 0.00 0.00 77 1018.7
20260902194752 96 124 1.7 4.3 0.00 0.00 0.00 77 1018.8
20260902194247 95 248 3.5 7.8 0.00 0.00 0.00 77 1019.1
20260902193743 96 213 1.7 6.1 0.00 0.00 0.00 77 1019.1
20260902193238 95 130 4.3 5.2 0.00 0.00 0.00 77 1019.2
20260902192737 95 102 2.6 7.0 0.00 0.00 0.00 77 1019.3
20260902192236 95 230 7.8 9.6 0.00 0.00 0.00 77 1019.3
20260902191731 96 205 3.5 4.3 0.00 0.00 0.00 77 1019.2
20260902191225 95 219 4.3 5.2 0.00 0.00 0.00 77 1019.5
20260902190721 95 246 5.2 9.6 0.00 0.00 0.00 77 1019.6
20260902190221 94 180 1.7 5.2 0.00 0.00 0.00 77 1019.5
20260902185717 94 156 5.2 13.0 0.00 0.00 0.00 77 1019.6
20260902185213 95 197 2.6 6.1 0.00 0.00 0.00 77 1019.6
20260902184713 95 190 2.6 2.6 0.00 0.00 0.00 77 1019.8
20260902184208 95 218 8.7 8.7 0.00 0.00 0.00 77 1020.0
20260902183704 95 197 1.7 4.3 0.00 0.00 0.00 77 1019.9
20260902183200 95 277 3.5 4.3 0.00 0.00 0.00 77 1019.9
20260902182656 93 180 0.0 6.1 0.00 0.00 0.00 77 1019.8
20260902182152 94 273 3.5 4.3 0.00 0.00 0.00 77 1020.2
20260902181648 94 283 2.6 6.1 0.00 0.00 0.00 77 1020.2
20260902181148 94 236 4.3 7.8 0.00 0.00 0.00 77 1020.1
20260902180642 94 227 2.6 3.5 0.00 0.00 0.00 77 1020.2
20260902180138 93 194 0.9 4.3 0.00 0.00 0.00 77 1020.2
20260902175637 93 241 2.6 9.6 0.00 0.00 0.00 77 1020.5
20260902175133 92 219 2.6 7.0 0.00 0.00 0.00 77 1020.4
20260902174630 92 210 3.5 6.1 0.00 0.00 0.00 77 1020.5
20260902174125 92 260 7.8 10.4 0.00 0.00 0.00 77 1020.8
20260902173620 92 274 2.6 7.8 0.00 0.00 0.00 77 1020.6
20260902173115 92 250 5.2 7.0 0.00 0.00 0.00 77 1021.0
20260902172615 93 212 1.7 7.8 0.00 0.00 0.00 77 1020.8
20260902172109 93 203 3.5 10.4 0.00 0.00 0.00 77 1020.8
20260902171605 92 151 2.6 7.0 0.00 0.00 0.00 77 1020.8
20260902171100 91 241 5.2 9.6 0.00 0.00 0.00 77 1020.9
20260902170555 93 190 4.3 5.2 0.00 0.00 0.00 77 1021.0
20260902170051 91 248 6.1 8.7 0.00 0.00 0.00 77 1020.9
20260902165551 92 215 7.8 9.6 0.00 0.00 0.00 77 1021.2
20260902165046 91 274 5.2 9.6 0.00 0.00 0.00 76 1021.1
20260902164541 91 247 7.0 9.6 0.00 0.00 0.00 76 1021.2
20260902164039 90 243 6.1 9.6 0.00 0.00 0.00 76 1021.3
20260902163536 91 258 9.6 11.3 0.00 0.00 0.00 76 1021.2
20260902163033 91 227 6.1 12.2 0.00 0.00 0.00 76 1021.1
20260902162527 91 252 6.1 7.8 0.00 0.00 0.00 76 1021.4
20260902162023 92 222 4.3 7.0 0.00 0.00 0.00 77 1021.3
20260902161517 91 205 5.2 10.4 0.00 0.00 0.00 76 1021.4
20260902161013 91 195 2.6 4.3 0.00 0.00 0.00 76 1021.5
20260902160509 91 203 4.3 8.7 0.00 0.00 0.00 76 1021.3
20260902160010 91 216 5.2 11.3 0.00 0.00 0.00 76 1021.5
20260902155502 91 194 4.3 9.6 0.00 0.00 0.00 77 1021.6
20260902155001 91 198 4.3 8.7 0.00 0.00 0.00 76 1021.2
20260902154456 90 226 3.5 7.0 0.00 0.00 0.00 76 1021.3
20260902153951 90 229 4.3 5.2 0.00 0.00 0.00 76 1021.6
20260902153450 90 274 6.1 7.8 0.00 0.00 0.00 76 1021.6
20260902152945 90 246 1.7 4.3 0.00 0.00 0.00 76 1021.6
20260902152442 90 201 8.7 8.7 0.00 0.00 0.00 76 1021.5
20260902151937 90 252 1.7 6.1 0.00 0.00 0.00 76 1021.3
20260902151433 90 252 1.7 6.1 0.00 0.00 0.00 76 1021.3
20260902150926 89 210 4.3 6.1 0.00 0.00 0.00 76 1021.4
20260902150423 89 210 4.3 6.1 0.00 0.00 0.00 76 1021.5
20260902145922 89 210 4.3 6.1 0.00 0.00 0.00 76 1021.4
20260902145418 0 0.0 0.0 0.00 0.00 0.00 1021.4
20260902144913 0 0.0 0.0 0.00 0.00 0.00 1021.6
20260902144409 0 0.0 0.0 0.00 0.00 0.00 1021.7
20260902143903 0 0.0 0.0 0.00 0.00 0.00 1021.6
20260902143358 0 0.0 0.0 0.00 0.00 0.00 1021.4
20260902142853 0 0.0 0.0 0.00 0.00 0.00 1021.3
20260902142349 0 0.0 0.0 0.00 0.00 0.00 1021.3
20260902141844 0 0.0 0.0 0.00 0.00 0.00 1021.3
20260902141340 0 0.0 0.0 0.00 0.00 0.00 1021.2
20260902140839 0 0.0 0.0 0.00 0.00 0.00 1021.2
20260902140334 0 0.0 0.0 0.00 0.00 0.00 1021.6
20260902135833 0 0.0 0.0 0.00 0.00 0.00 1021.6
20260902135330 0 0.0 0.0 0.00 0.00 0.00 1021.5
20260902134828 0 0.0 0.0 0.00 0.00 0.00 1021.5
20260902134324 0 0.0 0.0 0.00 0.00 0.00 1021.5
20260902133820 0 0.0 0.0 0.00 0.00 0.00 1021.4
20260902133319 0 0.0 0.0 0.00 0.00 0.00 1021.6
20260902132814 0 0.0 0.0 0.00 0.00 0.00 1021.6
20260902132310 0 0.0 0.0 0.00 0.00 0.00 1021.5
20260902131805 0 0.0 0.0 0.00 0.00 0.00 1021.5
20260902131302 0 0.0 0.0 0.00 0.00 0.00 1021.5
20260902130801 0 0.0 0.0 0.00 0.00 0.00 1021.2
20260902130257 0 0.0 0.0 0.00 0.00 0.00 1021.5
20260902125752 0 0.0 0.0 0.00 0.00 0.00 1021.4
20260902125248 0 0.0 0.0 0.00 0.00 0.00 1021.5
20260902124744 0 0.0 0.0 0.00 0.00 0.00 1021.3
20260902124239 0 0.0 0.0 0.00 0.00 0.00 1021.4
20260902123734 0 0.0 0.0 0.00 0.00 0.00 1021.4
20260902123231 0 0.0 0.0 0.00 0.00 0.00 1021.5
20260902122729 0 0.0 0.0 0.00 0.00 0.00 1021.2
20260902122220 0 0.0 0.0 0.00 0.00 0.00 1021.3
20260902121720 0 0.0 0.0 0.00 0.00 0.00 1021.1
20260902121215 0 0.0 0.0 0.00 0.00 0.00 1021.2
20260902120710 0 0.0 0.0 0.00 0.00 0.00 1021.1
20260902120206 0 0.0 0.0 0.00 0.00 0.00 1021.3
20260902115701 0 0.0 0.0 0.00 0.00 0.00 1021.1
20260902115157 0 0.0 0.0 0.00 0.00 0.00 1021.0
20260902114653 0 0.0 0.0 0.00 0.00 0.00 1021.1
20260902114148 0 0.0 0.0 0.00 0.00 0.00 1020.9
20260902113643 0 0.0 0.0 0.00 0.00 0.00 1020.8
20260902113138 0 0.0 0.0 0.00 0.00 0.00 1020.8
20260902112633 0 0.0 0.0 0.00 0.00 0.00 1020.8
20260902112130 0 0.0 0.0 0.00 0.00 0.00 1020.6
20260902111625 0 0.0 0.0 0.00 0.00 0.00 1020.8
20260902111121 0 0.0 0.0 0.00 0.00 0.00 1020.4
20260902110617 0 0.0 0.0 0.00 0.00 0.00 1020.6
20260902110113 0 0.0 0.0 0.00 0.00 0.00 1020.6
20260902105612 0 0.0 0.0 0.00 0.00 0.00 1020.6
20260902105107 0 0.0 0.0 0.00 0.00 0.00 1020.6
20260902104603 0 0.0 0.0 0.00 0.00 0.00 1020.3
20260902104103 0 0.0 0.0 0.00 0.00 0.00 1020.5
20260902103557 0 0.0 0.0 0.00 0.00 0.00 1020.4
20260902103053 0 0.0 0.0 0.00 0.00 0.00 1020.7
20260902102549 0 0.0 0.0 0.00 0.00 0.00 1020.5
20260902102046 0 0.0 0.0 0.00 0.00 0.00 1020.4
20260902101541 0 0.0 0.0 0.00 0.00 0.00 1020.5
20260902101040 0 0.0 0.0 0.00 0.00 0.00 1020.5
20260902100535 0 0.0 0.0 0.00 0.00 0.00 1020.5
20260902100035 0 0.0 0.0 0.00 0.00 0.00 1020.1
20260902095534 0 0.0 0.0 0.00 0.00 0.00 1020.1
20260902095033 0 0.0 0.0 0.00 0.00 0.00 1020.3
20260902094529 0 0.0 0.0 0.00 0.00 0.00 1020.4
20260902094025 0 0.0 0.0 0.00 0.00 0.00 1020.2
20260902093525 0 0.0 0.0 0.00 0.00 0.00 1020.5
20260902093019 0 0.0 0.0 0.00 0.00 0.00 1020.3
20260902092514 0 0.0 0.0 0.00 0.00 0.00 1020.3
20260902092009 0 0.0 0.0 0.00 0.00 0.00 1020.2
20260902091504 0 0.0 0.0 0.00 0.00 0.00 1020.2
20260902091000 0 0.0 0.0 0.00 0.00 0.00 1020.1
20260902090455 0 0.0 0.0 0.00 0.00 0.00 1020.3
20260902085954 0 0.0 0.0 0.00 0.00 0.00 1020.1
20260902085449 0 0.0 0.0 0.00 0.00 0.00 1020.1
20260902084945 0 0.0 0.0 0.00 0.00 0.00 1020.1
20260902084441 0 0.0 0.0 0.00 0.00 0.00 1020.2
20260902083937 0 0.0 0.0 0.00 0.00 0.00 1020.1
20260902083436 0 0.0 0.0 0.00 0.00 0.00 1020.3
20260902082931 0 0.0 0.0 0.00 0.00 0.00 1020.2
20260902082427 0 0.0 0.0 0.00 0.00 0.00 1020.2
20260902081923 0 0.0 0.0 0.00 0.00 0.00 1020.1
20260902081420 0 0.0 0.0 0.00 0.00 0.00 1020.0
20260902080914 0 0.0 0.0 0.00 0.00 0.00 1020.2
20260902080410 0 0.0 0.0 0.00 0.00 0.00 1020.1
20260902075909 0 0.0 0.0 0.00 0.00 0.00 1020.0
20260902075406 0 0.0 0.0 0.00 0.00 0.00 1020.2
20260902074901 0 0.0 0.0 0.00 0.00 0.00 1020.3
20260902074357 0 0.0 0.0 0.00 0.00 0.00 1020.4
20260902073851 0 0.0 0.0 0.00 0.00 0.00 1020.4
20260902073348 0 0.0 0.0 0.00 0.00 0.00 1020.3
20260902072843 0 0.0 0.0 0.00 0.00 0.00 1020.2
20260902072339 0 0.0 0.0 0.00 0.00 0.00 1020.2
20260902071835 0 0.0 0.0 0.00 0.00 0.00 1020.2
20260902071329 0 0.0 0.0 0.00 0.00 0.00 1020.3
20260902070826 0 0.0 0.0 0.00 0.00 0.00 1020.3
20260902070326 0 0.0 0.0 0.00 0.00 0.00 1020.7
20260902065825 0 0.0 0.0 0.00 0.00 0.00 1020.4
20260902065320 0 0.0 0.0 0.00 0.00 0.00 1020.3
20260902064815 0 0.0 0.0 0.00 0.00 0.00 1020.5
20260902064312 0 0.0 0.0 0.00 0.00 0.00 1020.4
20260902063807 0 0.0 0.0 0.00 0.00 0.00 1020.3
20260902063307 0 0.0 0.0 0.00 0.00 0.00 1020.2
20260902062801 0 0.0 0.0 0.00 0.00 0.00 1020.2
20260902062255 0 0.0 0.0 0.00 0.00 0.00 1020.5
20260902061755 0 0.0 0.0 0.00 0.00 0.00 1020.4
20260902061250 0 0.0 0.0 0.00 0.00 0.00 1020.5
20260902060747 0 0.0 0.0 0.00 0.00 0.00 1020.5
20260902060237 0 0.0 0.0 0.00 0.00 0.00 1020.3
20260902055732 0 0.0 0.0 0.00 0.00 0.00 1020.3
20260902055229 0 0.0 0.0 0.00 0.00 0.00 1020.3
20260902054724 0 0.0 0.0 0.00 0.00 0.00 1020.3
20260902054219 0 0.0 0.0 0.00 0.00 0.00 1020.3
20260902053714 0 0.0 0.0 0.00 0.00 0.00 1020.2
20260902053214 0 0.0 0.0 0.00 0.00 0.00 1020.3
20260902052713 0 0.0 0.0 0.00 0.00 0.00 1020.3
20260902052209 0 0.0 0.0 0.00 0.00 0.00 1020.0
20260902051708 0 0.0 0.0 0.00 0.00 0.00 1020.1
20260902051203 0 0.0 0.0 0.00 0.00 0.00 1020.0
20260902050657 0 0.0 0.0 0.00 0.00 0.00 1020.2
20260902050153 0 0.0 0.0 0.00 0.00 0.00 1020.1
20260902045647 0 0.0 0.0 0.00 0.00 0.00 1019.9
20260902045143 0 0.0 0.0 0.00 0.00 0.00 1019.9
20260902044638 0 0.0 0.0 0.00 0.00 0.00 1019.9
20260902044134 0 0.0 0.0 0.00 0.00 0.00 1020.0
20260902043629 0 0.0 0.0 0.00 0.00 0.00 1019.9
20260902043124 0 0.0 0.0 0.00 0.00 0.00 1019.8
20260902042623 0 0.0 0.0 0.00 0.00 0.00 1019.8
20260902042119 0 0.0 0.0 0.00 0.00 0.00 1020.0
20260902041619 0 0.0 0.0 0.00 0.00 0.00 1019.7
20260902041113 0 0.0 0.0 0.00 0.00 0.00 1019.7
20260902040608 0 0.0 0.0 0.00 0.00 0.00 1019.4
20260902040103 0 0.0 0.0 0.00 0.00 0.00 1019.9
20260902035601 0 0.0 0.0 0.00 0.00 0.00 1019.8
20260902035057 0 0.0 0.0 0.00 0.00 0.00 1019.8
20260902034556 0 0.0 0.0 0.00 0.00 0.00 1019.8
20260902034055 0 0.0 0.0 0.00 0.00 0.00 1019.8
20260902033554 0 0.0 0.0 0.00 0.00 0.00 1019.8
20260902033050 0 0.0 0.0 0.00 0.00 0.00 1019.7
20260902032548 0 0.0 0.0 0.00 0.00 0.00 1019.5
20260902032043 0 0.0 0.0 0.00 0.00 0.00 1019.7
20260902031538 87 171 2.6 4.3 0.00 0.00 0.00 76 1019.6
20260902031034 87 171 2.6 4.3 0.00 0.00 0.00 76 1019.5
20260902030529 87 171 2.6 4.3 0.00 0.00 0.00 76 1019.4
20260902030028 87 171 2.6 4.3 0.00 0.00 0.00 76 1019.3
20260902025523 87 171 2.6 4.3 0.00 0.00 0.00 76 1018.9
20260902025018 87 171 2.6 4.3 0.00 0.00 0.00 76 1019.2
20260902024514 87 171 2.6 4.3 0.00 0.00 0.00 76 1019.2
20260902024014 87 171 2.6 4.3 0.00 0.00 0.00 76 1019.3
20260902023510 87 171 2.6 4.3 0.00 0.00 0.00 76 1019.3
20260902023009 87 171 2.6 4.3 0.00 0.00 0.00 76 1019.2
20260902022504 87 171 2.6 4.3 0.00 0.00 0.00 76 1018.9
20260902022000 87 171 2.6 4.3 0.00 0.00 0.00 76 1018.8
20260902021455 0 0.0 0.0 0.00 0.00 0.00 1018.9
20260902020950 0 0.0 0.0 0.00 0.00 0.00 1019.1
20260902020446 0 0.0 0.0 0.00 0.00 0.00 1018.9
20260902015941 0 0.0 0.0 0.00 0.00 0.00 1018.7
20260902015437 0 0.0 0.0 0.00 0.00 0.00 1018.5
20260902014932 0 0.0 0.0 0.00 0.00 0.00 1018.7
20260902014429 0 0.0 0.0 0.00 0.00 0.00 1018.7
20260902013928 0 0.0 0.0 0.00 0.00 0.00 1018.6
20260902013424 0 0.0 0.0 0.00 0.00 0.00 1018.5
20260902012919 0 0.0 0.0 0.00 0.00 0.00 1018.7
20260902012415 0 0.0 0.0 0.00 0.00 0.00 1018.5
20260902011910 0 0.0 0.0 0.00 0.00 0.00 1018.5
20260902011405 0 0.0 0.0 0.00 0.00 0.00 1018.6
20260902010905 0 0.0 0.0 0.00 0.00 0.00 1018.2
20260902010359 0 0.0 0.0 0.00 0.00 0.00 1018.4
20260902005859 0 0.0 0.0 0.00 0.00 0.00 1018.2
20260902005352 0 0.0 0.0 0.00 0.00 0.00 1018.2
20260902004849 0 0.0 0.0 0.00 0.00 0.00 1018.3
20260902004348 0 0.0 0.0 0.00 0.00 0.00 1018.3
20260902003843 0 0.0 0.0 0.00 0.00 0.00 1018.3
20260902003338 0 0.0 0.0 0.00 0.00 0.00 1018.1
20260902002834 0 0.0 0.0 0.00 0.00 0.00 1018.3
20260902002333 0 0.0 0.0 0.00 0.00 0.00 1018.3
20260902001829 0 0.0 0.0 0.00 0.00 0.00 1018.2
20260902001324 0 0.0 0.0 0.00 0.00 0.00 1018.4
20260902000818 0 0.0 0.0 0.00 0.00 0.00 1018.5
20260902000313 0 0.0 0.0 0.00 0.00 0.00 1018.4
20260901235808 0 0.0 0.0 0.00 0.00 0.00 1018.1
20260901235307 0 0.0 0.0 0.00 0.00 0.00 1018.2
20260901234802 0 0.0 0.0 0.00 0.00 0.00 1018.2
20260901234257 0 0.0 0.0 0.00 0.00 0.00 1018.5
20260901233758 0 0.0 0.0 0.00 0.00 0.00 1018.3
20260901233253 0 0.0 0.0 0.00 0.00 0.00 1018.5
20260901232748 0 0.0 0.0 0.00 0.00 0.00 1018.4
20260901232238 0 0.0 0.0 0.00 0.00 0.00 1018.6
20260901231734 0 0.0 0.0 0.00 0.00 0.00 1018.5
20260901231230 0 0.0 0.0 0.00 0.00 0.00 1018.6
20260901230726 0 0.0 0.0 0.00 0.00 0.00 1018.4
20260901230226 0 0.0 0.0 0.00 0.00 0.00 1018.6
20260901225721 0 0.0 0.0 0.00 0.00 0.00 1018.4
20260901225215 0 0.0 0.0 0.00 0.00 0.00 1018.6
20260901224711 0 0.0 0.0 0.00 0.00 0.00 1018.5
20260901224207 0 0.0 0.0 0.00 0.00 0.00 1018.5
20260901223703 97 239 3.5 3.5 0.00 0.00 0.00 77 1018.5
20260901223157 97 239 3.5 3.5 0.00 0.00 0.00 77 1018.6
20260901222654 97 239 3.5 3.5 0.00 0.00 0.00 77 1018.6
20260901222150 97 239 3.5 3.5 0.00 0.00 0.00 77 1018.5
20260901221646 97 239 3.5 3.5 0.00 0.00 0.00 77 1018.5
20260901221141 97 239 3.5 3.5 0.00 0.00 0.00 77 1018.6
20260901220640 97 239 3.5 3.5 0.00 0.00 0.00 77 1018.6
20260901220139 97 239 3.5 3.5 0.00 0.00 0.00 77 1018.4
20260901215638 97 239 3.5 3.5 0.00 0.00 0.00 77 1018.3
20260901215132 97 239 3.5 3.5 0.00 0.00 0.00 77 1018.5
20260901214631 97 239 3.5 3.5 0.00 0.00 0.00 77 1018.6
20260901214131 97 239 3.5 4.3 0.00 0.00 0.00 77 1018.8
20260901213625 97 237 2.6 4.3 0.00 0.00 0.00 77 1018.7
20260901213120 97 166 0.0 4.3 0.00 0.00 0.00 77 1018.6